| time (UTC) | temp C | wind direction | speed KPH | gust KPH | rain 1hr cm | rain 24hr cm | rain mn cm | humidity % | barometer mb |
| 20260510095002 | 17 | 217 | 3.2 | 11.3 | 0.00 | 0.00 | 0.00 | 83 | 1014.7 |
| 20260510094505 | 17 | 171 | 6.4 | 11.3 | 0.00 | 0.00 | 0.00 | 83 | 1015.0 |
| 20260510094004 | 17 | 175 | 3.2 | 9.7 | 0.00 | 0.00 | 0.00 | 82 | 1015.1 |
| 20260510093504 | 17 | 201 | 4.8 | 6.4 | 0.00 | 0.00 | 0.00 | 82 | 1015.2 |
| 20260510093004 | 17 | 189 | 3.2 | 9.7 | 0.00 | 0.00 | 0.00 | 82 | 1015.2 |
| 20260510092505 | 17 | 175 | 4.8 | 9.7 | 0.00 | 0.00 | 0.00 | 82 | 1015.0 |
| 20260510092003 | 17 | 209 | 3.2 | 6.4 | 0.00 | 0.00 | 0.00 | 81 | 1015.0 |
| 20260510091506 | 16 | 185 | 3.2 | 8.0 | 0.00 | 0.00 | 0.00 | 81 | 1015.2 |
| 20260510091003 | 16 | 212 | 3.2 | 8.0 | 0.00 | 0.00 | 0.00 | 82 | 1015.2 |
| 20260510090503 | 16 | 194 | 1.6 | 6.4 | 0.00 | 0.00 | 0.00 | 81 | 1015.3 |
| 20260510090007 | 16 | 200 | 1.6 | 8.0 | 0.00 | 0.00 | 0.00 | 80 | 1015.3 |
| 20260510085502 | 16 | 187 | 3.2 | 11.3 | 0.00 | 0.00 | 0.00 | 80 | 1015.1 |
| 20260510085003 | 16 | 171 | 3.2 | 11.3 | 0.00 | 0.00 | 0.00 | 79 | 1015.0 |
| 20260510084504 | 16 | 207 | 4.8 | 6.4 | 0.00 | 0.00 | 0.00 | 79 | 1015.1 |
| 20260510084003 | 16 | 194 | 1.6 | 6.4 | 0.00 | 0.00 | 0.00 | 78 | 1015.1 |
| 20260510083504 | 16 | 191 | 3.2 | 6.4 | 0.00 | 0.00 | 0.00 | 78 | 1015.1 |
| 20260510083017 | 16 | 199 | 3.2 | 6.4 | 0.00 | 0.00 | 0.00 | 78 | 1015.2 |
| 20260510082505 | 17 | 178 | 3.2 | 6.4 | 0.00 | 0.00 | 0.00 | 77 | 1015.4 |
| 20260510082004 | 17 | 225 | 1.6 | 6.4 | 0.00 | 0.00 | 0.00 | 77 | 1015.5 |
| 20260510081508 | 17 | 173 | 1.6 | 6.4 | 0.00 | 0.00 | 0.00 | 77 | 1015.4 |
| 20260510081004 | 17 | 168 | 3.2 | 8.0 | 0.00 | 0.00 | 0.00 | 77 | 1015.3 |
| 20260510080504 | 17 | 178 | 3.2 | 8.0 | 0.00 | 0.00 | 0.00 | 77 | 1015.3 |
| 20260510080023 | 17 | 212 | 4.8 | 8.0 | 0.00 | 0.00 | 0.00 | 77 | 1015.3 |
| 20260510075505 | 17 | 227 | 3.2 | 9.7 | 0.00 | 0.00 | 0.00 | 77 | 1015.2 |
| 20260510075004 | 17 | 200 | 3.2 | 9.7 | 0.00 | 0.00 | 0.00 | 76 | 1015.0 |
| 20260510074511 | 17 | 197 | 4.8 | 11.3 | 0.00 | 0.00 | 0.00 | 77 | 1014.9 |
| 20260510074002 | 17 | 188 | 4.8 | 11.3 | 0.00 | 0.00 | 0.00 | 77 | 1014.9 |
| 20260510073504 | 17 | 192 | 4.8 | 14.5 | 0.00 | 0.00 | 0.00 | 77 | 1014.9 |
| 20260510073008 | 16 | 183 | 4.8 | 14.5 | 0.00 | 0.00 | 0.00 | 77 | 1014.9 |
| 20260510072507 | 16 | 179 | 4.8 | 9.7 | 0.00 | 0.00 | 0.00 | 77 | 1015.0 |
| 20260510072004 | 16 | 180 | 3.2 | 9.7 | 0.00 | 0.00 | 0.00 | 77 | 1015.1 |
| 20260510071510 | 16 | 217 | 3.2 | 8.0 | 0.00 | 0.00 | 0.00 | 77 | 1015.2 |
| 20260510071004 | 16 | 194 | 4.8 | 8.0 | 0.00 | 0.00 | 0.00 | 77 | 1015.1 |
| 20260510070502 | 16 | 219 | 1.6 | 8.0 | 0.00 | 0.00 | 0.00 | 76 | 1015.0 |
| 20260510070012 | 16 | 199 | 3.2 | 4.8 | 0.00 | 0.00 | 0.00 | 75 | 1015.0 |
| 20260510065504 | 16 | 203 | 1.6 | 4.8 | 0.00 | 0.00 | 0.00 | 75 | 1015.1 |
| 20260510065004 | 16 | 220 | 1.6 | 4.8 | 0.00 | 0.00 | 0.00 | 74 | 1015.1 |
| 20260510064510 | 16 | 209 | 0.0 | 3.2 | 0.00 | 0.00 | 0.00 | 74 | 1015.1 |
| 20260510064003 | 16 | 189 | 1.6 | 3.2 | 0.00 | 0.00 | 0.00 | 74 | 1015.1 |
| 20260510063503 | 16 | 204 | 1.6 | 3.2 | 0.00 | 0.00 | 0.00 | 74 | 1015.2 |
| 20260510063008 | 16 | 221 | 1.6 | 3.2 | 0.00 | 0.00 | 0.00 | 73 | 1015.2 |
| 20260510062505 | 16 | 217 | 1.6 | 3.2 | 0.00 | 0.00 | 0.00 | 73 | 1015.2 |
| 20260510062009 | 16 | 223 | 0.0 | 3.2 | 0.00 | 0.00 | 0.00 | 72 | 1015.2 |
| 20260510061505 | 16 | 223 | 0.0 | 3.2 | 0.00 | 0.00 | 0.00 | 72 | 1015.2 |
| 20260510061004 | 16 | 209 | 0.0 | 3.2 | 0.00 | 0.00 | 0.00 | 72 | 1015.2 |
| 20260510060504 | 16 | 238 | 1.6 | 3.2 | 0.00 | 0.00 | 0.00 | 72 | 1015.3 |
| 20260510060012 | 16 | 237 | 1.6 | 3.2 | 0.00 | 0.00 | 0.00 | 71 | 1015.3 |
| 20260510055504 | 16 | 234 | 1.6 | 3.2 | 0.00 | 0.00 | 0.00 | 71 | 1015.3 |
| 20260510055004 | 16 | 234 | 0.0 | 4.8 | 0.00 | 0.00 | 0.00 | 71 | 1015.3 |
| 20260510054511 | 16 | 234 | 0.0 | 4.8 | 0.00 | 0.00 | 0.00 | 71 | 1015.5 |
| 20260510054004 | 16 | 226 | 1.6 | 3.2 | 0.00 | 0.00 | 0.00 | 71 | 1015.5 |
| 20260510053507 | 16 | 236 | 1.6 | 4.8 | 0.00 | 0.00 | 0.00 | 71 | 1015.5 |
| 20260510053013 | 16 | 183 | 1.6 | 4.8 | 0.00 | 0.00 | 0.00 | 71 | 1015.5 |
| 20260510052506 | 16 | 213 | 1.6 | 3.2 | 0.00 | 0.00 | 0.00 | 71 | 1015.5 |
| 20260510052004 | 16 | 213 | 1.6 | 8.0 | 0.00 | 0.00 | 0.00 | 71 | 1015.5 |
| 20260510051514 | 16 | 221 | 1.6 | 8.0 | 0.00 | 0.00 | 0.00 | 71 | 1015.5 |
| 20260510051004 | 16 | 217 | 3.2 | 6.4 | 0.00 | 0.00 | 0.00 | 73 | 1015.4 |
| 20260510050503 | 16 | 194 | 3.2 | 9.7 | 0.00 | 0.00 | 0.00 | 73 | 1015.2 |
| 20260510050011 | 15 | 217 | 4.8 | 9.7 | 0.00 | 0.00 | 0.00 | 74 | 1015.1 |
| 20260510045506 | 15 | 192 | 3.2 | 8.0 | 0.00 | 0.00 | 0.00 | 74 | 1015.1 |
| 20260510045006 | 15 | 178 | 1.6 | 11.3 | 0.00 | 0.00 | 0.00 | 74 | 1015.1 |
| 20260510044526 | 14 | 180 | 3.2 | 11.3 | 0.00 | 0.00 | 0.00 | 75 | 1015.0 |
| 20260510044006 | 14 | 214 | 3.2 | 4.8 | 0.00 | 0.00 | 0.00 | 75 | 1014.9 |
| 20260510043506 | 13 | 219 | 3.2 | 6.4 | 0.00 | 0.00 | 0.00 | 74 | 1015.0 |
| 20260510043016 | 13 | 236 | 1.6 | 6.4 | 0.00 | 0.00 | 0.00 | 74 | 1014.8 |
| 20260510042503 | 13 | 235 | 4.8 | 6.4 | 0.00 | 0.00 | 0.00 | 74 | 1014.6 |
| 20260510042003 | 13 | 229 | 4.8 | 6.4 | 0.00 | 0.00 | 0.00 | 74 | 1014.7 |
| 20260510041518 | 12 | 235 | 4.8 | 6.4 | 0.00 | 0.00 | 0.00 | 75 | 1014.7 |
| 20260510041004 | 12 | 240 | 3.2 | 6.4 | 0.00 | 0.00 | 0.00 | 75 | 1014.7 |
| 20260510040507 | 12 | 234 | 4.8 | 6.4 | 0.00 | 0.00 | 0.00 | 74 | 1014.7 |
| 20260510040014 | 12 | 229 | 4.8 | 6.4 | 0.00 | 0.00 | 0.00 | 74 | 1014.7 |
| 20260510035505 | 12 | 234 | 4.8 | 6.4 | 0.00 | 0.00 | 0.00 | 74 | 1014.6 |
| 20260510035004 | 12 | 222 | 4.8 | 6.4 | 0.00 | 0.00 | 0.00 | 74 | 1014.6 |
| 20260510034512 | 12 | 231 | 4.8 | 6.4 | 0.00 | 0.00 | 0.00 | 74 | 1014.6 |
| 20260510034006 | 12 | 234 | 4.8 | 4.8 | 0.00 | 0.00 | 0.00 | 74 | 1014.6 |
| 20260510033505 | 12 | 232 | 4.8 | 4.8 | 0.00 | 0.00 | 0.00 | 74 | 1014.5 |
| 20260510033014 | 13 | 229 | 4.8 | 4.8 | 0.00 | 0.00 | 0.00 | 73 | 1014.4 |
| 20260510032508 | 13 | 229 | 4.8 | 4.8 | 0.00 | 0.00 | 0.00 | 72 | 1014.3 |
| 20260510032007 | 13 | 231 | 3.2 | 4.8 | 0.00 | 0.00 | 0.00 | 71 | 1014.3 |
| 20260510031518 | 13 | 233 | 3.2 | 4.8 | 0.00 | 0.00 | 0.00 | 70 | 1014.2 |
| 20260510031008 | 13 | 236 | 3.2 | 4.8 | 0.00 | 0.00 | 0.00 | 69 | 1014.2 |
| 20260510030506 | 13 | 232 | 3.2 | 4.8 | 0.00 | 0.00 | 0.00 | 69 | 1014.1 |
| 20260510030016 | 13 | 232 | 3.2 | 4.8 | 0.00 | 0.00 | 0.00 | 68 | 1014.1 |
| 20260510025506 | 14 | 236 | 4.8 | 4.8 | 0.00 | 0.00 | 0.00 | 68 | 1014.1 |
| 20260510025006 | 14 | 240 | 3.2 | 6.4 | 0.00 | 0.00 | 0.00 | 66 | 1014.0 |
| 20260510024518 | 15 | 230 | 4.8 | 6.4 | 0.00 | 0.00 | 0.00 | 65 | 1014.0 |
| 20260510024005 | 15 | 221 | 1.6 | 3.2 | 0.00 | 0.00 | 0.00 | 64 | 1013.9 |
| 20260510023506 | 15 | 205 | 1.6 | 4.8 | 0.00 | 0.03 | 0.00 | 60 | 1013.8 |
| 20260510023016 | 15 | 227 | 3.2 | 4.8 | 0.00 | 0.05 | 0.00 | 63 | 1013.7 |
| 20260510022510 | 16 | 231 | 3.2 | 4.8 | 0.00 | 0.08 | 0.00 | 62 | 1013.6 |
| 20260510022007 | 16 | 225 | 1.6 | 3.2 | 0.00 | 0.10 | 0.00 | 57 | 1013.4 |
| 20260510021506 | 16 | 232 | 1.6 | 3.2 | 0.00 | 0.13 | 0.00 | 59 | 1013.3 |
| 20260510021002 | 16 | 230 | 1.6 | 4.8 | 0.00 | 0.18 | 0.00 | 60 | 1013.2 |
| 20260510020509 | 16 | 230 | 3.2 | 4.8 | 0.00 | 0.23 | 0.00 | 60 | 1013.1 |
| 20260510020004 | 16 | 225 | 3.2 | 3.2 | 0.00 | 0.23 | 0.00 | 58 | 1013.0 |
| 20260510015507 | 17 | 225 | 3.2 | 4.8 | 0.00 | 0.23 | 0.00 | 56 | 1012.9 |
| 20260510015003 | 17 | 234 | 3.2 | 4.8 | 0.00 | 0.23 | 0.00 | 56 | 1012.7 |
| 20260510014509 | 17 | 234 | 3.2 | 4.8 | 0.00 | 0.23 | 0.00 | 54 | 1012.8 |
| 20260510014005 | 18 | 234 | 3.2 | 4.8 | 0.00 | 0.25 | 0.00 | 51 | 1013.0 |
| 20260510013506 | 18 | 221 | 3.2 | 3.2 | 0.00 | 0.25 | 0.00 | 49 | 1013.0 |
| 20260510013014 | 19 | 292 | 1.6 | 3.2 | 0.00 | 0.25 | 0.00 | 48 | 1012.8 |
| 20260510012506 | 20 | 352 | 0.0 | 3.2 | 0.00 | 0.25 | 0.00 | 46 | 1012.8 |
| 20260510012007 | 20 | 352 | 0.0 | 3.2 | 0.00 | 0.25 | 0.00 | 46 | 1012.8 |
| 20260510011533 | 21 | 352 | 0.0 | 3.2 | 0.00 | 0.25 | 0.00 | 44 | 1012.8 |
| 20260510011006 | 21 | 324 | 0.0 | 3.2 | 0.00 | 0.25 | 0.00 | 42 | 1012.7 |
| 20260510010502 | 21 | 324 | 0.0 | 3.2 | 0.00 | 0.25 | 0.00 | 43 | 1012.6 |
| 20260510010004 | 21 | 323 | 0.0 | 3.2 | 0.00 | 0.25 | 0.00 | 42 | 1012.6 |
| 20260510005503 | 22 | 318 | 0.0 | 3.2 | 0.00 | 0.25 | 0.00 | 41 | 1012.5 |
| 20260510005004 | 22 | 318 | 0.0 | 3.2 | 0.00 | 0.25 | 0.00 | 41 | 1012.5 |
| 20260510004509 | 22 | 318 | 0.0 | 3.2 | 0.00 | 0.25 | 0.00 | 40 | 1012.4 |
| 20260510004005 | 22 | 360 | 0.0 | 3.2 | 0.00 | 0.25 | 0.00 | 40 | 1012.3 |
| 20260510003503 | 22 | 360 | 0.0 | 3.2 | 0.00 | 0.25 | 0.00 | 42 | 1012.2 |
| 20260510003011 | 22 | 360 | 1.6 | 3.2 | 0.00 | 0.25 | 0.00 | 40 | 1012.3 |
| 20260510002507 | 22 | 193 | 0.0 | 3.2 | 0.00 | 0.25 | 0.00 | 40 | 1012.4 |
| 20260510002006 | 22 | 67 | 0.0 | 3.2 | 0.00 | 0.25 | 0.00 | 39 | 1012.4 |
| 20260510001514 | 22 | 52 | 1.6 | 4.8 | 0.00 | 0.25 | 0.00 | 38 | 1012.4 |
| 20260510001006 | 23 | 71 | 1.6 | 4.8 | 0.00 | 0.25 | 0.00 | 38 | 1012.3 |
| 20260510000506 | 23 | 120 | 3.2 | 4.8 | 0.00 | 0.25 | 0.00 | 36 | 1012.3 |
| 20260510000041 | 23 | 64 | 1.6 | 4.8 | 0.00 | 0.25 | 0.00 | 37 | 1012.2 |
| 20260509235510 | 23 | 62 | 1.6 | 4.8 | 0.00 | 0.25 | 0.00 | 37 | 1012.0 |
| 20260509235003 | 23 | 78 | 1.6 | 9.7 | 0.00 | 0.25 | 0.00 | 37 | 1012.1 |
| 20260509234504 | 23 | 82 | 3.2 | 9.7 | 0.00 | 0.25 | 0.00 | 36 | 1012.1 |
| 20260509234005 | 23 | 53 | 1.6 | 6.4 | 0.00 | 0.25 | 0.00 | 37 | 1012.2 |
| 20260509233507 | 23 | 56 | 3.2 | 6.4 | 0.00 | 0.25 | 0.00 | 34 | 1012.2 |
| 20260509233007 | 23 | 76 | 3.2 | 8.0 | 0.00 | 0.25 | 0.00 | 34 | 1012.3 |
| 20260509232503 | 24 | 53 | 3.2 | 8.0 | 0.00 | 0.25 | 0.00 | 35 | 1012.4 |
| 20260509232004 | 24 | 49 | 3.2 | 6.4 | 0.00 | 0.25 | 0.00 | 37 | 1012.4 |
| 20260509231512 | 24 | 78 | 3.2 | 6.4 | 0.00 | 0.25 | 0.00 | 35 | 1012.3 |
| 20260509231005 | 24 | 112 | 3.2 | 8.0 | 0.00 | 0.25 | 0.00 | 34 | 1012.1 |
| 20260509230506 | 24 | 91 | 4.8 | 8.0 | 0.00 | 0.25 | 0.00 | 37 | 1012.1 |
| 20260509230019 | 24 | 66 | 3.2 | 9.7 | 0.00 | 0.25 | 0.00 | 36 | 1012.2 |
| 20260509225507 | 24 | 55 | 4.8 | 9.7 | 0.00 | 0.25 | 0.00 | 34 | 1012.1 |
| 20260509225006 | 25 | 23 | 6.4 | 9.7 | 0.00 | 0.25 | 0.00 | 35 | 1012.1 |
| 20260509224521 | 25 | 39 | 3.2 | 8.0 | 0.00 | 0.25 | 0.00 | 36 | 1012.0 |
| 20260509224007 | 25 | 119 | 4.8 | 8.0 | 0.00 | 0.25 | 0.00 | 32 | 1012.0 |
| 20260509223505 | 26 | 92 | 3.2 | 6.4 | 0.00 | 0.25 | 0.00 | 32 | 1012.1 |
| 20260509223008 | 26 | 5 | 0.0 | 4.8 | 0.00 | 0.25 | 0.00 | 33 | 1012.1 |
| 20260509222509 | 25 | 248 | 1.6 | 4.8 | 0.00 | 0.25 | 0.00 | 29 | 1012.1 |
| 20260509222005 | 25 | 220 | 1.6 | 4.8 | 0.00 | 0.25 | 0.00 | 32 | 1012.1 |
| 20260509221511 | 25 | 325 | 1.6 | 4.8 | 0.00 | 0.25 | 0.00 | 32 | 1012.2 |
| 20260509221004 | 25 | 279 | 0.0 | 4.8 | 0.00 | 0.25 | 0.00 | 32 | 1012.2 |
| 20260509220503 | 25 | 167 | 3.2 | 8.0 | 0.00 | 0.25 | 0.00 | 31 | 1012.1 |
| 20260509220025 | 25 | 360 | 4.8 | 8.0 | 0.00 | 0.25 | 0.00 | 34 | 1012.2 |
| 20260509215506 | 26 | 5 | 0.0 | 6.4 | 0.00 | 0.25 | 0.00 | 35 | 1012.3 |
| 20260509215015 | 25 | 194 | 0.0 | 6.4 | 0.00 | 0.25 | 0.00 | 30 | 1012.3 |
| 20260509214528 | 25 | 80 | 3.2 | 6.4 | 0.00 | 0.25 | 0.00 | 32 | 1012.3 |
| 20260509214006 | 25 | 53 | 0.0 | 8.0 | 0.00 | 0.25 | 0.00 | 36 | 1012.3 |
| 20260509213507 | 25 | 57 | 3.2 | 8.0 | 0.00 | 0.25 | 0.00 | 32 | 1012.3 |
| 20260509213029 | 25 | 83 | 3.2 | 8.0 | 0.00 | 0.25 | 0.00 | 35 | 1012.4 |
| 20260509212507 | 25 | 125 | 3.2 | 9.7 | 0.00 | 0.25 | 0.00 | 32 | 1012.4 |
| 20260509212007 | 25 | 85 | 3.2 | 9.7 | 0.00 | 0.25 | 0.00 | 36 | 1012.3 |
| 20260509211517 | 25 | 110 | 6.4 | 9.7 | 0.00 | 0.25 | 0.00 | 37 | 1012.4 |
| 20260509211004 | 25 | 205 | 3.2 | 8.0 | 0.00 | 0.25 | 0.00 | 32 | 1012.5 |
| 20260509210504 | 25 | 90 | 6.4 | 9.7 | 0.00 | 0.25 | 0.00 | 33 | 1012.5 |
| 20260509210017 | 25 | 123 | 4.8 | 16.1 | 0.00 | 0.25 | 0.00 | 33 | 1012.6 |
| 20260509205504 | 25 | 78 | 6.4 | 16.1 | 0.00 | 0.25 | 0.00 | 34 | 1012.7 |
| 20260509205006 | 25 | 90 | 6.4 | 11.3 | 0.00 | 0.25 | 0.00 | 33 | 1012.8 |
| 20260509204535 | 25 | 148 | 3.2 | 9.7 | 0.00 | 0.25 | 0.00 | 34 | 1012.7 |
| 20260509204012 | 25 | 84 | 3.2 | 9.7 | 0.00 | 0.25 | 0.00 | 35 | 1012.8 |
| 20260509203511 | 25 | 109 | 3.2 | 12.9 | 0.00 | 0.25 | 0.00 | 35 | 1012.8 |
| 20260509203027 | 25 | 167 | 3.2 | 16.1 | 0.00 | 0.25 | 0.00 | 37 | 1012.9 |
| 20260509202509 | 25 | 71 | 6.4 | 16.1 | 0.00 | 0.25 | 0.00 | 36 | 1012.8 |
| 20260509202012 | 25 | 161 | 3.2 | 11.3 | 0.00 | 0.25 | 0.00 | 35 | 1012.8 |
| 20260509201529 | 24 | 75 | 3.2 | 12.9 | 0.00 | 0.25 | 0.00 | 31 | 1012.8 |
| 20260509201004 | 25 | 96 | 4.8 | 12.9 | 0.00 | 0.25 | 0.00 | 33 | 1012.9 |
| 20260509200514 | 25 | 179 | 1.6 | 16.1 | 0.00 | 0.25 | 0.00 | 38 | 1012.9 |
| 20260509200011 | 25 | 149 | 6.4 | 16.1 | 0.00 | 0.25 | 0.00 | 31 | 1013.0 |
| 20260509195508 | 25 | 57 | 1.6 | 9.7 | 0.00 | 0.25 | 0.00 | 32 | 1013.0 |
| 20260509195007 | 25 | 63 | 4.8 | 9.7 | 0.00 | 0.25 | 0.00 | 37 | 1013.2 |
| 20260509194528 | 25 | 33 | 1.6 | 12.9 | 0.00 | 0.25 | 0.00 | 34 | 1013.2 |
| 20260509194011 | 24 | 167 | 1.6 | 17.7 | 0.00 | 0.25 | 0.00 | 37 | 1013.2 |
| 20260509193508 | 24 | 38 | 8.0 | 17.7 | 0.00 | 0.25 | 0.00 | 32 | 1013.2 |
| 20260509193026 | 24 | 54 | 6.4 | 14.5 | 0.00 | 0.25 | 0.00 | 36 | 1013.3 |
| 20260509192511 | 24 | 38 | 3.2 | 14.5 | 0.00 | 0.25 | 0.00 | 35 | 1013.3 |
| 20260509192010 | 24 | 55 | 3.2 | 11.3 | 0.00 | 0.25 | 0.00 | 37 | 1013.3 |
| 20260509191529 | 24 | 162 | 4.8 | 16.1 | 0.00 | 0.25 | 0.00 | 34 | 1013.3 |
| 20260509191008 | 24 | 57 | 4.8 | 16.1 | 0.00 | 0.25 | 0.00 | 31 | 1013.3 |
| 20260509190508 | 24 | 28 | 9.7 | 14.5 | 0.00 | 0.25 | 0.00 | 34 | 1013.3 |
| 20260509190011 | 24 | 45 | 3.2 | 11.3 | 0.00 | 0.25 | 0.00 | 31 | 1013.4 |
| 20260509185505 | 24 | 115 | 3.2 | 8.0 | 0.00 | 0.25 | 0.00 | 32 | 1013.4 |
| 20260509185007 | 24 | 105 | 1.6 | 12.9 | 0.00 | 0.25 | 0.00 | 31 | 1013.4 |
| 20260509184522 | 23 | 317 | 3.2 | 12.9 | 0.00 | 0.25 | 0.00 | 31 | 1013.5 |
| 20260509184007 | 23 | 29 | 3.2 | 9.7 | 0.00 | 0.25 | 0.00 | 37 | 1013.4 |
| 20260509183507 | 23 | 296 | 4.8 | 12.9 | 0.00 | 0.25 | 0.00 | 31 | 1013.5 |
| 20260509183020 | 23 | 360 | 3.2 | 16.1 | 0.00 | 0.25 | 0.00 | 32 | 1013.4 |
| 20260509182508 | 23 | 350 | 6.4 | 16.1 | 0.00 | 0.25 | 0.00 | 33 | 1013.4 |
| 20260509182015 | 23 | 74 | 4.8 | 11.3 | 0.00 | 0.25 | 0.00 | 35 | 1013.4 |
| 20260509181523 | 23 | 37 | 1.6 | 14.5 | 0.00 | 0.25 | 0.00 | 38 | 1013.4 |
| 20260509181011 | 23 | 360 | 8.0 | 14.5 | 0.00 | 0.25 | 0.00 | 38 | 1013.5 |
| 20260509180509 | 23 | 45 | 4.8 | 9.7 | 0.00 | 0.25 | 0.00 | 38 | 1013.4 |
| 20260509180028 | 23 | 31 | 3.2 | 9.7 | 0.00 | 0.25 | 0.00 | 43 | 1013.4 |
| 20260509175510 | 23 | 70 | 1.6 | 9.7 | 0.00 | 0.25 | 0.00 | 40 | 1013.3 |
| 20260509175012 | 23 | 347 | 4.8 | 14.5 | 0.00 | 0.25 | 0.00 | 40 | 1013.3 |
| 20260509174514 | 23 | 92 | 1.6 | 14.5 | 0.00 | 0.25 | 0.00 | 35 | 1013.3 |
| 20260509174005 | 23 | 306 | 8.0 | 14.5 | 0.00 | 0.25 | 0.00 | 35 | 1013.4 |
| 20260509173505 | 23 | 352 | 8.0 | 14.5 | 0.00 | 0.25 | 0.00 | 37 | 1013.5 |
| 20260509173002 | 23 | 67 | 8.0 | 14.5 | 0.00 | 0.25 | 0.00 | 36 | 1013.3 |
| 20260509172503 | 23 | 9 | 3.2 | 9.7 | 0.00 | 0.25 | 0.00 | 37 | 1013.5 |
| 20260509172003 | 23 | 281 | 1.6 | 11.3 | 0.00 | 0.25 | 0.00 | 34 | 1013.6 |
| 20260509171504 | 23 | 232 | 8.0 | 11.3 | 0.00 | 0.25 | 0.00 | 37 | 1013.7 |
| 20260509171003 | 23 | 167 | 1.6 | 12.9 | 0.00 | 0.25 | 0.00 | 37 | 1013.8 |
| 20260509170504 | 23 | 112 | 4.8 | 12.9 | 0.00 | 0.25 | 0.00 | 39 | 1013.8 |
| 20260509170008 | 22 | 260 | 3.2 | 9.7 | 0.00 | 0.25 | 0.00 | 33 | 1013.9 |
| 20260509165502 | 22 | 296 | 4.8 | 12.9 | 0.00 | 0.25 | 0.00 | 31 | 1013.9 |
| 20260509165004 | 22 | 92 | 4.8 | 12.9 | 0.00 | 0.25 | 0.00 | 36 | 1013.8 |
| 20260509164512 | 22 | 348 | 8.0 | 12.9 | 0.00 | 0.25 | 0.00 | 34 | 1013.8 |
| 20260509164008 | 22 | 13 | 1.6 | 9.7 | 0.00 | 0.25 | 0.00 | 42 | 1013.7 |
| 20260509163506 | 22 | 5 | 6.4 | 9.7 | 0.00 | 0.25 | 0.00 | 35 | 1013.8 |
| 20260509163025 | 22 | 57 | 4.8 | 9.7 | 0.00 | 0.25 | 0.00 | 44 | 1013.8 |
| 20260509162509 | 22 | 123 | 0.0 | 8.0 | 0.00 | 0.25 | 0.00 | 49 | 1013.8 |
| 20260509162010 | 22 | 341 | 3.2 | 12.9 | 0.00 | 0.25 | 0.00 | 54 | 1013.7 |
| 20260509161503 | 22 | 20 | 4.8 | 12.9 | 0.00 | 0.25 | 0.00 | 48 | 1013.6 |
| 20260509161003 | 22 | 15 | 3.2 | 6.4 | 0.00 | 0.25 | 0.00 | 49 | 1013.7 |
| 20260509160504 | 22 | 330 | 1.6 | 6.4 | 0.00 | 0.25 | 0.00 | 50 | 1013.7 |
| 20260509160011 | 21 | 203 | 1.6 | 8.0 | 0.00 | 0.25 | 0.00 | 54 | 1013.7 |
| 20260509155501 | 21 | 286 | 4.8 | 8.0 | 0.00 | 0.25 | 0.00 | 52 | 1013.6 |
| 20260509155002 | 21 | 21 | 3.2 | 6.4 | 0.00 | 0.25 | 0.00 | 57 | 1013.6 |
| 20260509154512 | 21 | 307 | 3.2 | 11.3 | 0.00 | 0.25 | 0.00 | 60 | 1013.5 |
| 20260509154008 | 21 | 232 | 3.2 | 11.3 | 0.00 | 0.25 | 0.00 | 58 | 1013.5 |
| 20260509153502 | 21 | 220 | 3.2 | 9.7 | 0.00 | 0.25 | 0.00 | 64 | 1013.4 |
| 20260509153029 | 21 | 288 | 4.8 | 8.0 | 0.00 | 0.25 | 0.00 | 56 | 1013.5 |
| 20260509152504 | 20 | 302 | 3.2 | 8.0 | 0.00 | 0.25 | 0.00 | 60 | 1013.5 |
| 20260509152013 | 20 | 319 | 3.2 | 11.3 | 0.00 | 0.25 | 0.00 | 65 | 1013.5 |
| 20260509151521 | 20 | 232 | 4.8 | 11.3 | 0.00 | 0.25 | 0.00 | 65 | 1013.5 |
| 20260509151006 | 20 | 302 | 3.2 | 9.7 | 0.00 | 0.25 | 0.00 | 68 | 1013.5 |
| 20260509150510 | 20 | 298 | 3.2 | 11.3 | 0.00 | 0.25 | 0.00 | 67 | 1013.5 |
| 20260509150003 | 20 | 232 | 6.4 | 11.3 | 0.00 | 0.25 | 0.00 | 70 | 1013.4 |
| 20260509145503 | 19 | 245 | 3.2 | 9.7 | 0.00 | 0.25 | 0.00 | 72 | 1013.5 |
| 20260509145015 | 19 | 281 | 4.8 | 9.7 | 0.00 | 0.25 | 0.00 | 68 | 1013.4 |
| 20260509144522 | 19 | 267 | 4.8 | 9.7 | 0.00 | 0.25 | 0.00 | 70 | 1013.4 |
| 20260509144007 | 19 | 291 | 4.8 | 11.3 | 0.00 | 0.25 | 0.00 | 71 | 1013.4 |
| 20260509143503 | 18 | 267 | 4.8 | 11.3 | 0.00 | 0.25 | 0.00 | 71 | 1013.4 |
| 20260509143018 | 18 | 232 | 4.8 | 11.3 | 0.00 | 0.25 | 0.00 | 74 | 1013.4 |
| 20260509142508 | 18 | 317 | 4.8 | 12.9 | 0.00 | 0.25 | 0.00 | 73 | 1013.3 |
| 20260509142012 | 18 | 272 | 6.4 | 12.9 | 0.00 | 0.25 | 0.00 | 73 | 1013.2 |
| 20260509141519 | 18 | 297 | 6.4 | 12.9 | 0.00 | 0.25 | 0.00 | 77 | 1013.2 |
| 20260509141008 | 17 | 268 | 6.4 | 12.9 | 0.00 | 0.25 | 0.00 | 76 | 1013.1 |
| 20260509140508 | 17 | 286 | 4.8 | 12.9 | 0.00 | 0.25 | 0.00 | 75 | 1013.1 |
| 20260509140022 | 17 | 291 | 6.4 | 14.5 | 0.00 | 0.25 | 0.00 | 77 | 1013.0 |
| 20260509135506 | 17 | 306 | 6.4 | 16.1 | 0.00 | 0.25 | 0.00 | 77 | 1013.0 |
| 20260509135003 | 17 | 297 | 4.8 | 16.1 | 0.00 | 0.25 | 0.00 | 78 | 1012.9 |
| 20260509134507 | 17 | 287 | 9.7 | 16.1 | 0.00 | 0.25 | 0.00 | 77 | 1013.0 |
| 20260509134003 | 17 | 302 | 6.4 | 12.9 | 0.00 | 0.25 | 0.00 | 77 | 1012.9 |
| 20260509133507 | 17 | 286 | 4.8 | 12.9 | 0.00 | 0.25 | 0.00 | 78 | 1013.0 |
| 20260509133026 | 17 | 304 | 6.4 | 14.5 | 0.00 | 0.25 | 0.00 | 78 | 1012.9 |
| 20260509132503 | 17 | 302 | 8.0 | 17.7 | 0.00 | 0.25 | 0.00 | 78 | 1012.9 |
| 20260509132008 | 17 | 284 | 9.7 | 16.1 | 0.00 | 0.25 | 0.00 | 77 | 1012.8 |
| 20260509131515 | 17 | 287 | 9.7 | 14.5 | 0.00 | 0.25 | 0.00 | 78 | 1012.8 |
| 20260509131008 | 16 | 313 | 4.8 | 11.3 | 0.00 | 0.25 | 0.00 | 80 | 1012.7 |
| 20260509130513 | 16 | 288 | 4.8 | 12.9 | 0.00 | 0.25 | 0.00 | 80 | 1012.8 |
| 20260509130020 | 16 | 269 | 6.4 | 12.9 | 0.00 | 0.25 | 0.00 | 80 | 1012.8 |
| 20260509125507 | 16 | 290 | 6.4 | 12.9 | 0.00 | 0.25 | 0.00 | 80 | 1012.7 |
| 20260509125007 | 16 | 241 | 4.8 | 11.3 | 0.00 | 0.25 | 0.00 | 81 | 1012.5 |
| 20260509124525 | 16 | 289 | 4.8 | 12.9 | 0.00 | 0.25 | 0.00 | 81 | 1012.4 |
| 20260509124007 | 16 | 276 | 4.8 | 12.9 | 0.00 | 0.25 | 0.00 | 81 | 1012.4 |
| 20260509123502 | 15 | 279 | 4.8 | 12.9 | 0.00 | 0.25 | 0.00 | 82 | 1012.3 |
| 20260509123011 | 15 | 302 | 4.8 | 11.3 | 0.00 | 0.25 | 0.00 | 82 | 1012.3 |
| 20260509122504 | 15 | 256 | 6.4 | 11.3 | 0.00 | 0.25 | 0.00 | 82 | 1012.3 |
| 20260509122011 | 15 | 262 | 6.4 | 14.5 | 0.00 | 0.25 | 0.00 | 83 | 1012.3 |
| 20260509121524 | 15 | 259 | 6.4 | 14.5 | 0.00 | 0.25 | 0.00 | 83 | 1012.2 |
| 20260509121006 | 15 | 252 | 4.8 | 11.3 | 0.00 | 0.25 | 0.00 | 83 | 1012.1 |
| 20260509120507 | 15 | 271 | 4.8 | 11.3 | 0.00 | 0.25 | 0.00 | 83 | 1012.0 |
| 20260509120019 | 15 | 257 | 4.8 | 12.9 | 0.00 | 0.25 | 0.00 | 84 | 1011.9 |
| 20260509115507 | 14 | 269 | 4.8 | 12.9 | 0.00 | 0.25 | 0.00 | 84 | 1011.9 |
| 20260509115009 | 14 | 259 | 6.4 | 12.9 | 0.00 | 0.25 | 0.00 | 84 | 1011.9 |
| 20260509114535 | 14 | 236 | 4.8 | 14.5 | 0.00 | 0.25 | 0.00 | 84 | 1011.8 |
| 20260509114010 | 14 | 259 | 6.4 | 16.1 | 0.00 | 0.25 | 0.00 | 84 | 1011.8 |
| 20260509113510 | 14 | 263 | 8.0 | 16.1 | 0.00 | 0.25 | 0.00 | 84 | 1011.7 |
| 20260509113032 | 14 | 228 | 6.4 | 14.5 | 0.00 | 0.25 | 0.00 | 85 | 1011.6 |
| 20260509112509 | 14 | 274 | 8.0 | 16.1 | 0.00 | 0.25 | 0.00 | 85 | 1011.5 |
| 20260509112005 | 14 | 293 | 6.4 | 16.1 | 0.00 | 0.25 | 0.00 | 85 | 1011.5 |
| 20260509111512 | 13 | 257 | 8.0 | 12.9 | 0.00 | 0.25 | 0.00 | 86 | 1011.4 |
| 20260509111004 | 13 | 261 | 8.0 | 14.5 | 0.00 | 0.25 | 0.00 | 86 | 1011.5 |
| 20260509110507 | 13 | 225 | 9.7 | 14.5 | 0.00 | 0.25 | 0.00 | 87 | 1011.4 |
| 20260509110017 | 13 | 233 | 8.0 | 12.9 | 0.00 | 0.25 | 0.00 | 87 | 1011.3 |
| 20260509105509 | 13 | 238 | 4.8 | 11.3 | 0.00 | 0.25 | 0.00 | 87 | 1011.2 |
| 20260509105007 | 13 | 250 | 6.4 | 11.3 | 0.00 | 0.25 | 0.00 | 87 | 1011.2 |
| 20260509104537 | 13 | 244 | 6.4 | 9.7 | 0.00 | 0.25 | 0.00 | 87 | 1011.2 |
| 20260509104008 | 13 | 196 | 4.8 | 16.1 | 0.00 | 0.25 | 0.00 | 87 | 1011.2 |
| 20260509103506 | 13 | 265 | 4.8 | 16.1 | 0.00 | 0.25 | 0.00 | 86 | 1011.1 |
| 20260509103025 | 13 | 252 | 4.8 | 11.3 | 0.00 | 0.25 | 0.00 | 86 | 1011.1 |
| 20260509102507 | 13 | 257 | 3.2 | 9.7 | 0.00 | 0.25 | 0.00 | 86 | 1011.1 |
| 20260509102010 | 13 | 257 | 6.4 | 9.7 | 0.00 | 0.25 | 0.00 | 87 | 1011.1 |
| 20260509101533 | 13 | 255 | 4.8 | 9.7 | 0.00 | 0.25 | 0.00 | 86 | 1011.1 |
| 20260509101010 | 12 | 294 | 3.2 | 11.3 | 0.00 | 0.25 | 0.00 | 87 | 1011.1 |
| 20260509100503 | 12 | 270 | 4.8 | 11.3 | 0.00 | 0.25 | 0.00 | 87 | 1011.2 |
| 20260509100014 | 12 | 271 | 4.8 | 11.3 | 0.00 | 0.25 | 0.00 | 86 | 1011.2 |
| 20260509095505 | 12 | 246 | 4.8 | 11.3 | 0.00 | 0.25 | 0.00 | 86 | 1011.2 |